[Iaude] MPEC L43: 2024 LR [a=1.15,e=0.12,i=7.7,H=23.2]
    mpec at cfa.harvard.edu 
    mpec at cfa.harvard.edu
       
    Tue Jun  4 09:57:50 EDT 2024
    
    
  
M.P.E.C. 2024-L43                                  Issued 2024 June 4, 13:56 UT
     The Minor Planet Electronic Circulars contain information on unusual
         minor planets, routine data on comets and natural satellites,
         and occasional editorial announcements.  They are published
    on behalf of Division F of the International Astronomical Union by the
          Minor Planet Center, Smithsonian Astrophysical Observatory,
                          Cambridge, MA 02138, U.S.A.
			  
             Prepared using the Tamkin Foundation Computer Network
                              MPC at CFA.HARVARD.EDU
            URL https://www.minorplanetcenter.net/    ISSN 1523-6714
                                    2024 LR                                     
Observations:
     K24L00R* C2024 06 02.57637420 56 58.358-32 37 31.76         20.59wXEL043F51
     K24L00R  C2024 06 02.58419720 57 00.117-32 37 03.15         20.64wXEL043F51
     K24L00R  C2024 06 02.59202020 57 01.819-32 36 34.89         20.49wXEL043F51
     K24L00R  C2024 06 02.59983820 57 03.591-32 36 05.82         20.82wXEL043F51
     K24L00R 3C2024 06 03.59406521 01 17.131-31 33 25.26         20.86GVEL043T14
     K24L00R 3C2024 06 03.59504221 01 17.347-31 33 21.50         20.57GVEL043T14
     K24L00R 3C2024 06 03.59601921 01 17.563-31 33 17.72         20.36GVEL043T14
     K24L00R KC2024 06 04.55802821 05 25.162-30 28 12.32         20.3 GVEL043474
     K24L00R KC2024 06 04.56167121 05 26.023-30 27 58.03         20.5 GVEL043474
     K24L00R KC2024 06 04.56349321 05 26.438-30 27 50.69         20.8 GVEL043474
     K24L00R KC2024 06 04.56713521 05 27.343-30 27 36.54         20.4 GVEL043474
Observer details:
474 Mount John Observatory, Lake Tekapo.  Observers A. C. Gilmore, P. M.
    Kilmartin.  Measurer P. M. Kilmartin.  1.0-m f/7.7 Reflector + CCD.
F51 Pan-STARRS 1, Haleakala.  Observers J. Herman, T. Lowe, P. Minguez, A.
    Schultz, I. Smith.  Measurers K. Chambers, T. de Boer, J. Fairlamb, H.
    Gao, M. Huber, C.-C. Lin, E. Magnier, Y. Ramanjooloo, R. Wainscoat, R.
    Weryk.  1.8-m Ritchey-Chretien + CCD.
T14 Canada-France-Hawaii Telescope, Maunakea.  Observers R. Wainscoat, J.
    Silva, T. Burdullis.  Measurers R. Weryk, R. Wainscoat.  3.6-m f/4.1
    reflector + CCD.
Orbital elements:
2024 LR                                                  Earth MOID = 0.0401 AU
Epoch 2024 Mar. 31.0 TT = JDT 2460400.5                 MPC                     
M 253.69989              (2000.0)            P               Q                  
n   0.79516581     Peri.   55.38988     +0.81541610     +0.56320646             
a   1.1538896      Node   269.97755     -0.56520803     +0.72469484             
e   0.1198189      Incl.    7.68764     -0.12504584     +0.39700866             
P   1.24           H   23.23          G   0.15           U   8                  
Residuals in seconds of arc
240602 F51  0.0   0.1-    240603 T14  0.0   0.0     240604 474  0.0   0.0
240602 F51  0.1+  0.1+    240603 T14  0.0   0.0     240604 474  0.3-  0.1+
240602 F51  0.4-  0.3-    240603 T14  0.0   0.0     240604 474  0.3+  0.1-
240602 F51  0.0   0.1+    240604 474  0.0   0.0
Ephemeris:
2024 LR                  a,e,i = 1.15, 0.12, 8                   q = 1.0156
Date    TT    R. A. (2000) Decl.     Delta      r    Elong.  Phase     V
2024 05 05    18 56 48.8 -46 34 48   0.2283  1.1426   120.9    49.3    22.2
...
2024 05 20    19 59 04.8 -42 23 31   0.1696  1.1137   123.2    49.5    21.5
...
2024 05 28    20 33 09.7 -37 33 06   0.1424  1.0987   123.7    50.1    21.1
...
2024 06 03    20 58 45.1 -32 10 22   0.1243  1.0878   123.4    51.1    20.8
2024 06 04    21 02 59.8 -31 06 02   0.1216  1.0860   123.3    51.3    20.7
2024 06 05    21 07 14.0 -29 58 25   0.1189  1.0842   123.2    51.6    20.7
...
2024 06 11    21 32 28.0 -21 58 33   0.1045  1.0739   121.6    53.6    20.4
...
2024 06 19    22 05 41.4 -07 55 00   0.09134 1.0609   117.2    58.4    20.3
...
2024 07 04    23 07 24.2 +23 21 08   0.08894 1.0401   102.8    72.4    20.6
A. U. Tomatic                (C) Copyright 2024 MPC           M.P.E.C. 2024-L43
    
    
More information about the Iaude
mailing list